Regional Weather Roundup
Issued by NWS New Orleans/Baton Rouge, LA

Current Version | Previous Version | Text Only | Print | Product List | Glossary On
Versions: 1 2 3 4 5 6 7 8 9 10 11 12 13 14 15 16 17 18 19 20 21 22 23 24 25 26 27 28 29 30 31 32 33 34 35 36 37 38 39 40 41 42 43 44 45 46 47 48 49 50
000
ASUS44 KLIX 191210
RWRLIX
NEW ORLEANS REGIONAL WEATHER ROUNDUP
NATIONAL WEATHER SERVICE NEW ORLEANS LA
600 AM CST FRI DEC 19 2014

NOTE: "FAIR" INDICATES FEW OR NO CLOUDS BELOW 12,000 FEET WITH NO
      SIGNIFICANT WEATHER AND/OR OBSTRUCTIONS TO VISIBILITY.
      SKY/WX - SKY CONDITION AND SIGNIFICANT WEATHER.
      TMP - AIR TEMPERATURE.     DP    - DEWPOINT TEMPERATURE.
      RH  - RELATIVE HUMIDITY.   PRES  - PRESSURE.
      HI  - HEAT INDEX.          WCI   - WIND CHILL INDEX.

*  THESE STATIONS ARE NOT NWS OR FAA STATIONS AND ARE NOT UNDER
   NWS QUALITY CONTROL.

LAZ038-040-048-061>063-065>067-069-191300-
SOUTHEAST LOUISIANA

CITY           SKY/WX    TMP DP  RH WIND       PRES   REMARKS
N.O. AUDUBON     N/A     60  53  77 MISG        N/A
6HR MIN TEMP:  58; 6HR MAX TEMP:  60;

N.O. INTL ARPT LGT RAIN  57  50  77 E8        30.07R
6HR MIN TEMP:  57; 6HR MAX TEMP:  58; 6HR PCP: TRACE;

N.O. LAKEFRONT CLOUDY    58  50  75 E18       30.06S
6HR MIN TEMP:  57; 6HR MAX TEMP:  60;

N.O. DOWNTOWN* CLOUDY    57  48  72 E13G18    30.07R
6HR MIN TEMP:  57; 6HR MAX TEMP:  59;

SLIDELL        LGT RAIN  54  51  90 NE9       30.06F FOG
6HR MIN TEMP:  54; 6HR MAX TEMP:  56; 6HR PCP:  0.19;

BATON ROUGE    LGT RAIN  54  52  93 N5        30.11R
6HR MIN TEMP:  53; 6HR MAX TEMP:  55; 6HR PCP:  1.01;

BOOTHVILLE     CLOUDY    60  57  89 E9        30.06R
6HR MIN TEMP:  59; 6HR MAX TEMP:  63; 6HR PCP: TRACE;

BELLE CHASSE   CLOUDY    56  52  86 E10       30.06S
6HR MIN TEMP:  56; 6HR MAX TEMP:  59; 6HR PCP: TRACE;

BOGALUSA*      TSTM      53  49  87 E6        30.12S
6HR MIN TEMP:  53; 6HR MAX TEMP:  54; 6HR PCP:  0.08;

GALLIANO*      CLOUDY    59  58  96 MISG      30.05R
6HR MIN TEMP:  57; 6HR MAX TEMP:  59; 6HR PCP:  0.06;

NEW ROADS*     CLOUDY    54  53  98 NW3       30.12R
6HR MIN TEMP:  53; 6HR MAX TEMP:  54; 6HR PCP:  1.40;

GONZALES*      CLOUDY    55  55 100 NW6       30.10R
6HR MIN TEMP:  55; 6HR MAX TEMP:  58; 6HR PCP:  0.34;

HAMMOND*       NOT AVBL
HOUMA*         CLOUDY    59  57  94 E8        30.06R FOG
PORT FOURCHON* CLOUDY    63  61  94 E8        30.08R

$$

MSZ070-080>082-191300-
SOUTHERN MISSISSIPPI

CITY           SKY/WX    TMP DP  RH WIND       PRES   REMARKS
MCCOMB         HVY RAIN  50  47  89 E9        30.12R FOG
6HR MIN TEMP:  50; 6HR MAX TEMP:  52; 6HR PCP:  0.07;

GULFPORT       HVY RAIN  51  49  92 NE9       30.12R
6HR MIN TEMP:  52; 6HR MAX TEMP:  55; 6HR PCP:  0.16;

BILOXI         RAIN      52  50  93 N8        30.14R FOG
6HR MIN TEMP:  53; 6HR MAX TEMP:  55; 6HR PCP:  0.21;

PASCAGOULA     CLOUDY    52  48  86 NE6       30.11R
6HR MIN TEMP:  52; 6HR MAX TEMP:  55; 6HR PCP: TRACE;


$$

COASTAL OBSERVATIONS
LAKE AND NEARSHORE STATIONS

STATION/POSITION TIME  TEMP    WIND        PRES    WAVE
                       AIR SEA DIR/SP/G            HT/PER
                 (UTC) (F)     (DEG/KT/KT) (MB)    (FT/S)
PASCAGOULA       1200   55      50/ 10/ 12 1018.5
WAVELAND YACHT   1200   54      60/ 12/ 14 1018.0
GRAND ISLE       1200   62 62   90/  8/ 11 1017.7
SOUTHWEST PASS   1200   62                 1017.2
NEW CANAL        1200   56 58   80/  6/ 13 1018.0
SHELL BEACH      1200   58 59   70/ 17/ 21 1017.7

OFFSHORE STATIONS

STATION/POSITION TIME  TEMP    WIND        PRES    WAVE
                       AIR SEA DIR/SP/G            HT/PER
                 (UTC) (F)     (DEG/KT/KT) (MB)    (FT/S)
64 S DAUPHIN ISL 1200   69 75   90/ 14/ 17 1017.7    2/ 3

$$



USA.gov is the U.S. government's official web portal to all federal, state and local government web resources and services.